Time,TemperatureF,DewpointF,PressureIn,WindDirection,WindDirectionDegrees,WindSpeedMPH,WindSpeedGustMPH,Humidity,HourlyPrecipIn,Conditions,Clouds,dailyrainin,SoftwareType,DateUTC
2013-11-02 00:10:00,54.4,44.1,29.64,SSW,210,1.0,1.0,68,0.00,,,0.00,Wunderground v.1.15,2013-11-02 04:10:00,
2013-11-02 00:30:00,52.9,43.7,29.63,West,271,2.0,3.0,71,0.00,,,0.00,Wunderground v.1.15,2013-11-02 04:30:00,
2013-11-02 00:50:00,51.5,43.5,29.63,WSW,256,2.0,2.0,74,0.00,,,0.00,Wunderground v.1.15,2013-11-02 04:50:00,
2013-11-02 00:55:00,51.3,43.3,29.63,NW,312,1.0,2.0,74,0.00,,,0.00,Wunderground v.1.15,2013-11-02 04:55:00,
2013-11-02 01:05:00,51.2,43.5,29.63,North,354,0.0,1.0,75,0.00,,,0.00,Wunderground v.1.15,2013-11-02 05:05:00,
2013-11-02 01:15:00,50.8,43.2,29.63,North,354,0.0,0.0,75,0.00,,,0.00,Wunderground v.1.15,2013-11-02 05:15:00,
2013-11-02 01:25:00,50.8,43.2,29.63,South,187,1.0,1.0,75,0.00,,,0.00,Wunderground v.1.15,2013-11-02 05:25:00,
2013-11-02 01:35:00,50.8,43.2,29.62,SSW,206,0.0,0.0,75,0.00,,,0.00,Wunderground v.1.15,2013-11-02 05:35:00,
2013-11-02 01:45:00,51.0,43.4,29.62,West,261,1.0,3.0,75,0.00,,,0.00,Wunderground v.1.15,2013-11-02 05:45:00,
2013-11-02 02:00:00,50.9,43.3,29.62,West,261,0.0,0.0,75,0.00,,,0.00,Wunderground v.1.15,2013-11-02 06:00:00,
2013-11-02 02:05:00,50.7,43.1,29.62,West,261,0.0,1.0,75,0.00,,,0.00,Wunderground v.1.15,2013-11-02 06:05:00,
2013-11-02 02:15:00,50.5,43.2,29.62,NNE,31,1.0,1.0,76,0.00,,,0.00,Wunderground v.1.15,2013-11-02 06:15:00,
2013-11-02 02:30:00,50.1,42.8,29.62,NNE,31,0.0,0.0,76,0.00,,,0.00,Wunderground v.1.15,2013-11-02 06:30:00,
2013-11-02 02:40:00,50.1,42.8,29.62,NNE,31,0.0,0.0,76,0.00,,,0.00,Wunderground v.1.15,2013-11-02 06:40:00,
2013-11-02 02:50:00,50.3,42.7,29.62,NNE,31,0.0,0.0,75,0.00,,,0.00,Wunderground v.1.15,2013-11-02 06:50:00,
2013-11-02 03:05:00,50.4,42.8,29.62,NNW,331,1.0,1.0,75,0.00,,,0.00,Wunderground v.1.15,2013-11-02 07:05:00,
2013-11-02 03:25:00,50.0,42.4,29.61,West,278,0.0,1.0,75,0.00,,,0.00,Wunderground v.1.15,2013-11-02 07:25:00,
2013-11-02 03:35:00,49.5,42.2,29.61,West,278,0.0,0.0,76,0.00,,,0.00,Wunderground v.1.15,2013-11-02 07:35:00,
2013-11-02 04:05:00,47.2,42.0,29.61,WNW,288,0.0,0.0,82,0.00,,,0.00,Wunderground v.1.15,2013-11-02 08:05:00,
2013-11-02 04:15:00,46.8,41.6,29.61,WNW,288,0.0,0.0,82,0.00,,,0.00,Wunderground v.1.15,2013-11-02 08:15:00,
2013-11-02 04:25:00,46.7,41.8,29.61,WNW,288,0.0,0.0,83,0.00,,,0.00,Wunderground v.1.15,2013-11-02 08:25:00,
2013-11-02 04:30:00,46.6,41.7,29.61,WNW,288,0.0,0.0,83,0.00,,,0.00,Wunderground v.1.15,2013-11-02 08:30:00,
2013-11-02 04:40:00,46.3,41.4,29.61,WNW,288,0.0,0.0,83,0.00,,,0.00,Wunderground v.1.15,2013-11-02 08:40:00,
2013-11-02 04:50:00,46.1,41.2,29.62,WNW,288,0.0,0.0,83,0.00,,,0.00,Wunderground v.1.15,2013-11-02 08:50:00,
2013-11-02 05:00:00,46.0,41.4,29.62,WNW,288,0.0,0.0,84,0.00,,,0.00,Wunderground v.1.15,2013-11-02 09:00:00,
2013-11-02 05:05:00,45.8,41.2,29.62,WNW,288,0.0,0.0,84,0.00,,,0.00,Wunderground v.1.15,2013-11-02 09:05:00,
2013-11-02 05:25:00,45.1,41.2,29.63,WNW,288,0.0,0.0,86,0.00,,,0.00,Wunderground v.1.15,2013-11-02 09:25:00,
2013-11-02 05:35:00,45.0,40.8,29.62,WNW,288,0.0,0.0,85,0.00,,,0.00,Wunderground v.1.15,2013-11-02 09:35:00,
2013-11-02 05:40:00,45.0,41.1,29.63,WNW,288,0.0,0.0,86,0.00,,,0.00,Wunderground v.1.15,2013-11-02 09:40:00,
2013-11-02 06:10:00,44.7,41.1,29.63,North,354,0.0,0.0,87,0.00,,,0.00,Wunderground v.1.15,2013-11-02 10:10:00,
2013-11-02 06:20:00,44.4,41.1,29.64,North,354,0.0,0.0,88,0.00,,,0.00,Wunderground v.1.15,2013-11-02 10:20:00,
2013-11-02 06:40:00,44.1,41.1,29.64,North,354,1.0,1.0,89,0.00,,,0.00,Wunderground v.1.15,2013-11-02 10:40:00,
2013-11-02 06:50:00,44.2,41.2,29.64,NE,44,1.0,1.0,89,0.00,,,0.00,Wunderground v.1.15,2013-11-02 10:50:00,
2013-11-02 07:00:00,44.0,41.0,29.64,ENE,68,1.0,1.0,89,0.00,,,0.00,Wunderground v.1.15,2013-11-02 11:00:00,
2013-11-02 07:05:00,44.0,41.0,29.64,NNW,336,1.0,1.0,89,0.00,,,0.00,Wunderground v.1.15,2013-11-02 11:05:00,
2013-11-02 07:20:00,44.4,41.7,29.65,East,94,1.0,1.0,90,0.00,,,0.00,Wunderground v.1.15,2013-11-02 11:20:00,
2013-11-02 07:35:00,45.8,42.7,29.65,North,359,0.0,1.0,89,0.00,,,0.00,Wunderground v.1.15,2013-11-02 11:35:00,
2013-11-02 07:40:00,46.0,42.6,29.66,NE,43,1.0,1.0,88,0.00,,,0.00,Wunderground v.1.15,2013-11-02 11:40:00,
2013-11-02 07:50:00,45.7,42.3,29.66,ENE,60,1.0,1.0,88,0.00,,,0.00,Wunderground v.1.15,2013-11-02 11:50:00,
2013-11-02 08:00:00,46.7,43.6,29.66,ESE,105,1.0,3.0,89,0.00,,,0.00,Wunderground v.1.15,2013-11-02 12:00:00,
2013-11-02 08:05:00,47.1,43.7,29.66,ESE,105,0.0,3.0,88,0.00,,,0.00,Wunderground v.1.15,2013-11-02 12:05:00,
2013-11-02 08:15:00,47.2,43.5,29.67,WSW,249,0.0,3.0,87,0.00,,,0.00,Wunderground v.1.15,2013-11-02 12:15:00,
2013-11-02 08:25:00,47.7,43.7,29.67,South,177,1.0,1.0,86,0.00,,,0.00,Wunderground v.1.15,2013-11-02 12:25:00,
2013-11-02 08:45:00,46.7,43.0,29.68,ENE,75,0.0,0.0,87,0.00,,,0.00,Wunderground v.1.15,2013-11-02 12:45:00,
2013-11-02 08:50:00,46.8,43.4,29.68,ENE,75,0.0,0.0,88,0.00,,,0.00,Wunderground v.1.15,2013-11-02 12:50:00,
2013-11-02 09:00:00,47.4,43.7,29.68,ENE,77,1.0,2.0,87,0.00,,,0.00,Wunderground v.1.15,2013-11-02 13:00:00,
2013-11-02 09:10:00,47.8,43.8,29.68,ENE,58,3.0,3.0,86,0.00,,,0.00,Wunderground v.1.15,2013-11-02 13:10:00,
2013-11-02 09:25:00,48.4,44.4,29.68,ENE,71,2.0,4.0,86,0.00,,,0.00,Wunderground v.1.15,2013-11-02 13:25:00,
2013-11-02 09:35:00,49.7,45.4,29.68,ESE,108,2.0,3.0,85,0.00,,,0.00,Wunderground v.1.15,2013-11-02 13:35:00,
2013-11-02 09:40:00,49.9,45.3,29.68,SSW,198,1.0,1.0,84,0.00,,,0.00,Wunderground v.1.15,2013-11-02 13:40:00,
2013-11-02 09:50:00,50.4,45.7,29.68,ESE,109,1.0,2.0,84,0.00,,,0.00,Wunderground v.1.15,2013-11-02 13:50:00,
2013-11-02 10:05:00,51.1,46.1,29.67,NE,44,1.0,2.0,83,0.00,,,0.00,Wunderground v.1.15,2013-11-02 14:05:00,
2013-11-02 10:15:00,52.7,45.0,29.67,WSW,256,3.0,4.0,75,0.00,,,0.00,Wunderground v.1.15,2013-11-02 14:15:00,
2013-11-02 10:25:00,53.9,45.8,29.67,SSE,149,3.0,3.0,74,0.00,,,0.00,Wunderground v.1.15,2013-11-02 14:25:00,
2013-11-02 10:35:00,54.1,45.6,29.67,SW,224,3.0,8.0,73,0.00,,,0.00,Wunderground v.1.15,2013-11-02 14:35:00,
2013-11-02 10:45:00,54.2,44.6,29.68,WSW,239,7.0,11.0,70,0.00,,,0.00,Wunderground v.1.15,2013-11-02 14:45:00,
2013-11-02 10:50:00,54.1,44.9,29.68,WSW,237,7.0,7.0,71,0.00,,,0.00,Wunderground v.1.15,2013-11-02 14:50:00,
2013-11-02 11:05:00,54.0,44.4,29.68,SW,223,6.0,8.0,70,0.00,,,0.00,Wunderground v.1.15,2013-11-02 15:05:00,
2013-11-02 11:15:00,53.9,44.0,29.68,West,265,6.0,8.0,69,0.00,,,0.00,Wunderground v.1.15,2013-11-02 15:15:00,
2013-11-02 11:25:00,53.8,43.5,29.69,WSW,256,5.0,9.0,68,0.00,,,0.00,Wunderground v.1.15,2013-11-02 15:25:00,
2013-11-02 11:40:00,53.0,43.5,29.70,SSW,211,6.0,6.0,70,0.00,,,0.00,Wunderground v.1.15,2013-11-02 15:40:00,
2013-11-02 11:50:00,53.3,43.0,29.70,SSW,192,3.0,3.0,68,0.00,,,0.00,Wunderground v.1.15,2013-11-02 15:50:00,
2013-11-02 12:00:00,54.7,43.6,29.70,SE,145,2.0,2.0,66,0.00,,,0.00,Wunderground v.1.15,2013-11-02 16:00:00,
2013-11-02 12:05:00,55.1,43.1,29.70,ENE,66,2.0,2.0,64,0.00,,,0.00,Wunderground v.1.15,2013-11-02 16:05:00,
2013-11-02 12:15:00,54.3,42.0,29.70,SW,218,6.0,6.0,63,0.00,,,0.00,Wunderground v.1.15,2013-11-02 16:15:00,
2013-11-02 12:25:00,53.9,42.4,29.71,SW,221,4.0,6.0,65,0.00,,,0.00,Wunderground v.1.15,2013-11-02 16:25:00,
2013-11-02 12:30:00,53.8,41.9,29.71,SSE,148,3.0,3.0,64,0.00,,,0.00,Wunderground v.1.15,2013-11-02 16:30:00,
2013-11-02 12:45:00,53.6,41.3,29.71,WSW,247,5.0,11.0,63,0.00,,,0.00,Wunderground v.1.15,2013-11-02 16:45:00,
2013-11-02 12:50:00,53.5,40.4,29.70,SSW,194,6.0,6.0,61,0.00,,,0.00,Wunderground v.1.15,2013-11-02 16:50:00,
2013-11-02 13:00:00,53.6,40.0,29.70,SW,231,6.0,11.0,60,0.00,,,0.00,Wunderground v.1.15,2013-11-02 17:00:00,
2013-11-02 13:20:00,53.9,40.3,29.71,West,269,5.0,6.0,60,0.00,,,0.00,Wunderground v.1.15,2013-11-02 17:20:00,
2013-11-02 13:25:00,54.0,40.0,29.71,SSW,204,5.0,6.0,59,0.00,,,0.00,Wunderground v.1.15,2013-11-02 17:25:00,
2013-11-02 13:35:00,54.1,40.5,29.70,WSW,243,3.0,5.0,60,0.00,,,0.00,Wunderground v.1.15,2013-11-02 17:35:00,
2013-11-02 13:45:00,54.7,40.2,29.70,SSW,197,3.0,3.0,58,0.00,,,0.00,Wunderground v.1.15,2013-11-02 17:45:00,
2013-11-02 13:50:00,55.0,40.0,29.70,SW,221,4.0,4.0,57,0.00,,,0.00,Wunderground v.1.15,2013-11-02 17:50:00,
2013-11-02 14:00:00,54.7,40.2,29.70,North,8,3.0,3.0,58,0.00,,,0.00,Wunderground v.1.15,2013-11-02 18:00:00,
2013-11-02 14:05:00,54.5,40.0,29.70,SW,233,2.0,6.0,58,0.00,,,0.00,Wunderground v.1.15,2013-11-02 18:05:00,
2013-11-02 14:15:00,54.2,40.2,29.71,NNW,341,4.0,4.0,59,0.00,,,0.00,Wunderground v.1.15,2013-11-02 18:15:00,
2013-11-02 14:20:00,54.1,40.5,29.71,North,4,4.0,4.0,60,0.00,,,0.00,Wunderground v.1.15,2013-11-02 18:20:00,
2013-11-02 14:30:00,53.7,39.7,29.70,NW,320,5.0,14.0,59,0.00,,,0.00,Wunderground v.1.15,2013-11-02 18:30:00,
2013-11-02 14:40:00,53.5,39.9,29.70,SSE,161,3.0,3.0,60,0.00,,,0.00,Wunderground v.1.15,2013-11-02 18:40:00,
2013-11-02 14:50:00,54.8,40.3,29.70,WSW,237,5.0,6.0,58,0.00,,,0.00,Wunderground v.1.15,2013-11-02 18:50:00,
2013-11-02 15:00:00,55.9,40.4,29.70,WSW,240,5.0,5.0,56,0.00,,,0.00,Wunderground v.1.15,2013-11-02 19:00:00,
2013-11-02 15:05:00,55.8,40.8,29.70,NNW,339,3.0,5.0,57,0.00,,,0.00,Wunderground v.1.15,2013-11-02 19:05:00,
2013-11-02 15:15:00,55.6,40.1,29.70,West,276,2.0,2.0,56,0.00,,,0.00,Wunderground v.1.15,2013-11-02 19:15:00,
2013-11-02 15:20:00,55.7,38.8,29.70,SW,231,2.0,2.0,53,0.00,,,0.00,Wunderground v.1.15,2013-11-02 19:20:00,
2013-11-02 15:30:00,55.5,39.1,29.70,North,354,2.0,6.0,54,0.00,,,0.00,Wunderground v.1.15,2013-11-02 19:30:00,
2013-11-02 15:40:00,54.8,38.0,29.70,WNW,287,5.0,5.0,53,0.00,,,0.00,Wunderground v.1.15,2013-11-02 19:40:00,
2013-11-02 15:45:00,54.4,37.6,29.71,SW,225,6.0,6.0,53,0.00,,,0.00,Wunderground v.1.15,2013-11-02 19:45:00,
2013-11-02 15:55:00,53.8,39.4,29.72,SW,218,7.0,11.0,58,0.00,,,0.00,Wunderground v.1.15,2013-11-02 19:55:00,
2013-11-02 16:05:00,54.3,40.7,29.72,South,191,6.0,7.0,60,0.00,,,0.00,Wunderground v.1.15,2013-11-02 20:05:00,
2013-11-02 16:15:00,55.1,40.6,29.73,ENE,60,5.0,7.0,58,0.00,,,0.00,Wunderground v.1.15,2013-11-02 20:15:00,
2013-11-02 16:20:00,55.6,40.6,29.73,South,180,3.0,3.0,57,0.00,,,0.00,Wunderground v.1.15,2013-11-02 20:20:00,
2013-11-02 16:30:00,54.6,40.1,29.73,WNW,301,2.0,3.0,58,0.00,,,0.00,Wunderground v.1.15,2013-11-02 20:30:00,
2013-11-02 16:40:00,53.6,40.0,29.74,NW,322,4.0,4.0,60,0.00,,,0.00,Wunderground v.1.15,2013-11-02 20:40:00,
2013-11-02 16:50:00,53.4,39.9,29.74,SSW,207,3.0,4.0,60,0.00,,,0.00,Wunderground v.1.15,2013-11-02 20:50:00,
2013-11-02 16:55:00,53.8,40.7,29.74,SW,225,4.0,8.0,61,0.00,,,0.00,Wunderground v.1.15,2013-11-02 20:55:00,
2013-11-02 17:05:00,53.9,39.9,29.74,West,263,5.0,6.0,59,0.00,,,0.00,Wunderground v.1.15,2013-11-02 21:05:00,
2013-11-02 17:15:00,52.8,39.3,29.74,WSW,253,4.0,4.0,60,0.00,,,0.00,Wunderground v.1.15,2013-11-02 21:15:00,
2013-11-02 17:25:00,52.3,40.1,29.75,NW,312,6.0,9.0,63,0.00,,,0.00,Wunderground v.1.15,2013-11-02 21:25:00,
2013-11-02 17:35:00,51.3,41.1,29.75,SW,221,6.0,6.0,68,0.00,,,0.00,Wunderground v.1.15,2013-11-02 21:35:00,
2013-11-02 17:45:00,51.0,41.6,29.76,NE,44,2.0,4.0,70,0.00,,,0.00,Wunderground v.1.15,2013-11-02 21:45:00,
2013-11-02 17:55:00,50.3,40.5,29.76,SW,227,4.0,5.0,69,0.00,,,0.00,Wunderground v.1.15,2013-11-02 21:55:00,
2013-11-02 18:05:00,49.9,40.5,29.77,WSW,251,4.0,5.0,70,0.00,,,0.00,Wunderground v.1.15,2013-11-02 22:05:00,
2013-11-02 18:15:00,49.6,39.8,29.77,SW,220,4.0,5.0,69,0.00,,,0.00,Wunderground v.1.15,2013-11-02 22:15:00,
2013-11-02 18:20:00,49.7,40.3,29.77,SSW,202,4.0,4.0,70,0.00,,,0.00,Wunderground v.1.15,2013-11-02 22:20:00,
2013-11-02 18:30:00,49.5,39.7,29.78,SW,233,1.0,1.0,69,0.00,,,0.00,Wunderground v.1.15,2013-11-02 22:30:00,
2013-11-02 18:40:00,49.3,39.9,29.81,East,88,1.0,3.0,70,0.00,,,0.00,Wunderground v.1.15,2013-11-02 22:40:00,
2013-11-02 18:50:00,48.0,40.1,29.80,WNW,296,4.0,4.0,74,0.00,,,0.00,Wunderground v.1.15,2013-11-02 22:50:00,
2013-11-02 19:00:00,47.4,39.2,29.81,NNW,342,2.0,3.0,73,0.00,,,0.00,Wunderground v.1.15,2013-11-02 23:00:00,
2013-11-02 19:05:00,47.3,39.1,29.81,NNW,343,2.0,3.0,73,0.00,,,0.00,Wunderground v.1.15,2013-11-02 23:05:00,
2013-11-02 19:15:00,46.9,39.0,29.81,ENE,63,1.0,1.0,74,0.00,,,0.00,Wunderground v.1.15,2013-11-02 23:15:00,
2013-11-02 19:20:00,46.9,39.0,29.81,NNE,22,1.0,4.0,74,0.00,,,0.00,Wunderground v.1.15,2013-11-02 23:20:00,
2013-11-02 19:30:00,46.7,38.9,29.81,ENE,62,1.0,1.0,74,0.00,,,0.00,Wunderground v.1.15,2013-11-02 23:30:00,
2013-11-02 19:40:00,46.5,39.0,29.81,WSW,243,1.0,1.0,75,0.00,,,0.00,Wunderground v.1.15,2013-11-02 23:40:00,
2013-11-02 19:50:00,46.2,38.7,29.82,East,96,1.0,1.0,75,0.00,,,0.00,Wunderground v.1.15,2013-11-02 23:50:00,
2013-11-02 20:00:00,46.4,38.9,29.82,East,79,1.0,1.0,75,0.00,,,0.00,Wunderground v.1.15,2013-11-03 00:00:00,
2013-11-02 20:05:00,46.3,38.8,29.83,ENE,78,1.0,2.0,75,0.00,,,0.00,Wunderground v.1.15,2013-11-03 00:05:00,
2013-11-02 20:15:00,45.8,38.7,29.83,North,4,1.0,2.0,76,0.00,,,0.00,Wunderground v.1.15,2013-11-03 00:15:00,
2013-11-02 20:20:00,45.7,38.6,29.83,ENE,58,1.0,3.0,76,0.00,,,0.00,Wunderground v.1.15,2013-11-03 00:20:00,
2013-11-02 20:30:00,46.1,38.6,29.83,NNW,331,2.0,2.0,75,0.00,,,0.00,Wunderground v.1.15,2013-11-03 00:30:00,
2013-11-02 20:40:00,46.0,38.5,29.84,NNW,342,1.0,1.0,75,0.00,,,0.00,Wunderground v.1.15,2013-11-03 00:40:00,
2013-11-02 20:50:00,45.9,38.4,29.84,SE,140,1.0,1.0,75,0.00,,,0.00,Wunderground v.1.15,2013-11-03 00:50:00,
2013-11-02 21:00:00,45.8,38.3,29.84,NE,56,1.0,2.0,75,0.00,,,0.00,Wunderground v.1.15,2013-11-03 01:00:00,
2013-11-02 21:05:00,45.8,38.3,29.84,North,4,1.0,2.0,75,0.00,,,0.00,Wunderground v.1.15,2013-11-03 01:05:00,
2013-11-02 21:15:00,45.8,38.3,29.85,WSW,254,1.0,4.0,75,0.00,,,0.00,Wunderground v.1.15,2013-11-03 01:15:00,
2013-11-02 21:25:00,45.9,38.4,29.85,SW,219,2.0,2.0,75,0.00,,,0.00,Wunderground v.1.15,2013-11-03 01:25:00,
2013-11-02 21:30:00,45.9,38.4,29.85,SW,218,1.0,1.0,75,0.00,,,0.00,Wunderground v.1.15,2013-11-03 01:30:00,
2013-11-02 21:40:00,45.8,38.3,29.85,WSW,242,1.0,1.0,75,0.00,,,0.00,Wunderground v.1.15,2013-11-03 01:40:00,
2013-11-02 21:50:00,45.7,38.2,29.85,SW,231,2.0,2.0,75,0.00,,,0.00,Wunderground v.1.15,2013-11-03 01:50:00,
2013-11-02 21:55:00,45.6,38.5,29.85,WNW,291,2.0,3.0,76,0.00,,,0.00,Wunderground v.1.15,2013-11-03 01:55:00,
2013-11-02 22:05:00,45.8,38.7,29.86,SW,221,4.0,5.0,76,0.00,,,0.00,Wunderground v.1.15,2013-11-03 02:05:00,
2013-11-02 22:15:00,46.0,38.9,29.86,South,174,3.0,5.0,76,0.00,,,0.00,Wunderground v.1.15,2013-11-03 02:15:00,
2013-11-02 22:25:00,45.9,39.1,29.86,South,183,1.0,1.0,77,0.00,,,0.00,Wunderground v.1.15,2013-11-03 02:25:00,
2013-11-02 22:35:00,45.6,38.8,29.86,WNW,299,1.0,3.0,77,0.00,,,0.00,Wunderground v.1.15,2013-11-03 02:35:00,
2013-11-02 22:45:00,45.9,39.1,29.87,West,269,2.0,6.0,77,0.00,,,0.00,Wunderground v.1.15,2013-11-03 02:45:00,
2013-11-02 22:55:00,46.4,39.2,29.87,WSW,253,2.0,8.0,76,0.00,,,0.00,Wunderground v.1.15,2013-11-03 02:55:00,
2013-11-02 23:00:00,46.7,39.5,29.88,South,183,3.0,3.0,76,0.00,,,0.00,Wunderground v.1.15,2013-11-03 03:00:00,
2013-11-02 23:05:00,46.7,39.5,29.88,WNW,300,3.0,3.0,76,0.00,,,0.00,Wunderground v.1.15,2013-11-03 03:05:00,
2013-11-02 23:15:00,46.7,39.2,29.88,NW,326,2.0,4.0,75,0.00,,,0.00,Wunderground v.1.15,2013-11-03 03:15:00,
2013-11-02 23:25:00,46.6,39.1,29.88,West,266,2.0,2.0,75,0.00,,,0.00,Wunderground v.1.15,2013-11-03 03:25:00,
2013-11-02 23:35:00,46.8,39.3,29.88,WSW,240,2.0,6.0,75,0.00,,,0.00,Wunderground v.1.15,2013-11-03 03:35:00,
2013-11-02 23:40:00,46.9,39.4,29.88,WNW,300,4.0,6.0,75,0.00,,,0.00,Wunderground v.1.15,2013-11-03 03:40:00,
2013-11-02 23:50:00,47.1,39.6,29.88,SSW,196,5.0,5.0,75,0.00,,,0.00,Wunderground v.1.15,2013-11-03 03:50:00,
2013-11-02 23:55:00,47.1,39.6,29.88,SW,219,5.0,5.0,75,0.00,,,0.00,Wunderground v.1.15,2013-11-03 03:55:00,